| time (UTC) | temp F | wind direction | speed MPH | gust MPH | rain 1hr in | rain 24hr in | rain mn in | humidity % | barometer mb |
| 20260905050516 | 75 | 0.0 | 0.0 | 0.00 | 0.00 | 0.00 | 90 | 1013.6 | |
| 20260905045537 | 75 | 45 | 1.0 | 3.0 | 0.00 | 0.00 | 0.00 | 90 | 1013.5 |
| 20260905044517 | 76 | 45 | 1.0 | 3.0 | 0.00 | 0.00 | 0.00 | 90 | 1013.5 |
| 20260905043517 | 76 | 0.0 | 0.0 | 0.00 | 0.00 | 0.00 | 90 | 1013.7 | |
| 20260905042517 | 76 | 45 | 1.0 | 2.0 | 0.00 | 0.00 | 0.00 | 90 | 1013.7 |
| 20260905041516 | 76 | 0.0 | 0.0 | 0.00 | 0.00 | 0.00 | 90 | 1013.8 | |
| 20260905040517 | 76 | 45 | 1.0 | 3.0 | 0.00 | 0.00 | 0.00 | 90 | 1013.8 |
| 20260905035517 | 76 | 45 | 1.0 | 2.0 | 0.00 | 0.00 | 0.00 | 90 | 1013.6 |
| 20260905034517 | 76 | 45 | 1.0 | 3.0 | 0.00 | 0.00 | 0.00 | 89 | 1013.7 |
| 20260905033517 | 76 | 45 | 1.0 | 4.0 | 0.00 | 0.00 | 0.00 | 89 | 1013.4 |
| 20260905032516 | 77 | 45 | 1.0 | 4.0 | 0.00 | 0.00 | 0.00 | 89 | 1013.6 |
| 20260905031557 | 77 | 45 | 2.0 | 4.0 | 0.00 | 0.00 | 0.00 | 89 | 1013.5 |
| 20260905030516 | 77 | 45 | 2.0 | 4.0 | 0.00 | 0.00 | 0.00 | 89 | 1013.3 |
| 20260905025516 | 77 | 45 | 2.0 | 4.0 | 0.00 | 0.00 | 0.00 | 89 | 1013.2 |
| 20260905024516 | 77 | 45 | 2.0 | 3.0 | 0.00 | 0.00 | 0.00 | 88 | 1013.1 |
| 20260905023517 | 78 | 45 | 1.0 | 4.0 | 0.00 | 0.00 | 0.00 | 88 | 1012.9 |
| 20260905022517 | 78 | 45 | 2.0 | 4.0 | 0.00 | 0.00 | 0.00 | 87 | 1012.8 |
| 20260905021538 | 79 | 45 | 2.0 | 5.0 | 0.00 | 0.00 | 0.00 | 87 | 1012.9 |
| 20260905020517 | 79 | 23 | 1.0 | 4.0 | 0.00 | 0.00 | 0.00 | 87 | 1012.7 |
| 20260905015516 | 79 | 45 | 2.0 | 4.0 | 0.00 | 0.00 | 0.00 | 87 | 1012.4 |
| 20260905014516 | 80 | 23 | 2.0 | 5.0 | 0.00 | 0.00 | 0.00 | 87 | 1012.4 |
| 20260905013516 | 80 | 23 | 2.0 | 4.0 | 0.00 | 0.00 | 0.00 | 87 | 1012.3 |
| 20260905012536 | 80 | 45 | 1.0 | 5.0 | 0.00 | 0.00 | 0.00 | 87 | 1012.3 |
| 20260905011536 | 81 | 23 | 1.0 | 4.0 | 0.00 | 0.00 | 0.00 | 87 | 1012.3 |
| 20260905010516 | 81 | 0.0 | 3.0 | 0.00 | 0.00 | 0.00 | 87 | 1012.1 | |
| 20260905005516 | 82 | 23 | 1.0 | 3.0 | 0.00 | 0.00 | 0.00 | 87 | 1012.1 |
| 20260905004536 | 83 | 23 | 1.0 | 2.0 | 0.00 | 0.00 | 0.00 | 86 | 1012.1 |
| 20260905003536 | 83 | 23 | 1.0 | 3.0 | 0.00 | 0.00 | 0.00 | 85 | 1012.2 |
| 20260905002516 | 84 | 23 | 2.0 | 6.0 | 0.00 | 0.00 | 0.00 | 84 | 1012.1 |
| 20260905001517 | 84 | 0 | 1.0 | 3.0 | 0.00 | 0.00 | 0.00 | 84 | 1012.1 |
| 20260905000536 | 85 | 45 | 1.0 | 3.0 | 0.00 | 0.00 | 0.00 | 83 | 1012.1 |
| 20260904235516 | 85 | 23 | 3.0 | 6.0 | 0.00 | 0.00 | 0.00 | 82 | 1012.0 |
| 20260904234516 | 86 | 45 | 3.0 | 9.0 | 0.00 | 0.00 | 0.00 | 82 | 1012.0 |
| 20260904233517 | 86 | 23 | 2.0 | 5.0 | 0.00 | 0.00 | 0.00 | 82 | 1012.1 |
| 20260904232516 | 86 | 45 | 2.0 | 4.0 | 0.00 | 0.00 | 0.00 | 81 | 1012.0 |
| 20260904231516 | 87 | 0 | 4.0 | 8.0 | 0.00 | 0.00 | 0.00 | 80 | 1012.0 |
| 20260904230516 | 86 | 45 | 2.0 | 4.0 | 0.00 | 0.00 | 0.00 | 81 | 1011.8 |
| 20260904225516 | 87 | 45 | 2.0 | 5.0 | 0.00 | 0.00 | 0.00 | 80 | 1011.9 |
| 20260904224516 | 87 | 23 | 3.0 | 7.0 | 0.00 | 0.00 | 0.00 | 79 | 1011.9 |
| 20260904223516 | 87 | 45 | 2.0 | 6.0 | 0.00 | 0.00 | 0.00 | 80 | 1011.8 |
| 20260904222516 | 88 | 45 | 3.0 | 9.0 | 0.00 | 0.00 | 0.00 | 79 | 1011.6 |
| 20260904221516 | 88 | 45 | 2.0 | 5.0 | 0.00 | 0.00 | 0.00 | 79 | 1011.6 |
| 20260904220516 | 89 | 23 | 2.0 | 4.0 | 0.00 | 0.00 | 0.00 | 77 | 1011.7 |
| 20260904215516 | 89 | 45 | 3.0 | 7.0 | 0.00 | 0.00 | 0.00 | 77 | 1011.7 |
| 20260904214516 | 90 | 23 | 3.0 | 9.0 | 0.00 | 0.00 | 0.00 | 76 | 1011.7 |
| 20260904213536 | 90 | 23 | 3.0 | 10.0 | 0.00 | 0.00 | 0.00 | 75 | 1011.8 |
| 20260904212556 | 90 | 23 | 3.0 | 5.0 | 0.00 | 0.00 | 0.00 | 75 | 1011.7 |
| 20260904211517 | 91 | 45 | 4.0 | 8.0 | 0.00 | 0.00 | 0.00 | 73 | 1011.8 |
| 20260904210517 | 91 | 23 | 3.0 | 8.0 | 0.00 | 0.00 | 0.00 | 74 | 1011.8 |
| 20260904205517 | 91 | 45 | 1.0 | 6.0 | 0.00 | 0.00 | 0.00 | 74 | 1011.7 |
| 20260904204516 | 91 | 23 | 4.0 | 8.0 | 0.00 | 0.00 | 0.00 | 73 | 1011.7 |
| 20260904203516 | 92 | 45 | 2.0 | 12.0 | 0.00 | 0.00 | 0.00 | 72 | 1011.9 |
| 20260904202516 | 93 | 45 | 2.0 | 4.0 | 0.00 | 0.00 | 0.00 | 68 | 1011.8 |
| 20260904201516 | 93 | 45 | 2.0 | 7.0 | 0.00 | 0.00 | 0.00 | 66 | 1011.8 |
| 20260904200516 | 92 | 45 | 1.0 | 4.0 | 0.00 | 0.00 | 0.00 | 65 | 1011.7 |
| 20260904195516 | 92 | 23 | 3.0 | 7.0 | 0.00 | 0.00 | 0.00 | 66 | 1011.8 |
| 20260904194516 | 92 | 45 | 3.0 | 7.0 | 0.00 | 0.00 | 0.00 | 66 | 1011.6 |
| 20260904193516 | 92 | 23 | 2.0 | 5.0 | 0.00 | 0.00 | 0.00 | 68 | 1011.6 |
| 20260904192516 | 92 | 45 | 2.0 | 9.0 | 0.00 | 0.00 | 0.00 | 68 | 1011.6 |
| 20260904191536 | 91 | 23 | 2.0 | 5.0 | 0.00 | 0.00 | 0.00 | 70 | 1011.5 |
| 20260904190516 | 91 | 45 | 2.0 | 4.0 | 0.00 | 0.00 | 0.00 | 68 | 1011.6 |
| 20260904185516 | 91 | 23 | 1.0 | 4.0 | 0.00 | 0.00 | 0.00 | 70 | 1011.6 |
| 20260904184516 | 91 | 0 | 3.0 | 6.0 | 0.00 | 0.00 | 0.00 | 66 | 1011.6 |
| 20260904183516 | 91 | 23 | 1.0 | 3.0 | 0.00 | 0.00 | 0.00 | 70 | 1011.7 |
| 20260904182516 | 90 | 0 | 3.0 | 5.0 | 0.00 | 0.00 | 0.00 | 71 | 1011.9 |
| 20260904181516 | 90 | 45 | 3.0 | 6.0 | 0.00 | 0.00 | 0.00 | 71 | 1011.9 |
| 20260904180516 | 90 | 158 | 3.0 | 7.0 | 0.00 | 0.00 | 0.00 | 70 | 1011.9 |
| 20260904175516 | 89 | 45 | 2.0 | 4.0 | 0.00 | 0.00 | 0.00 | 71 | 1011.9 |
| 20260904174516 | 90 | 23 | 3.0 | 8.0 | 0.00 | 0.00 | 0.00 | 71 | 1011.8 |
| 20260904173516 | 89 | 45 | 1.0 | 7.0 | 0.00 | 0.00 | 0.00 | 73 | 1011.7 |
| 20260904172536 | 89 | 0 | 1.0 | 5.0 | 0.00 | 0.00 | 0.00 | 72 | 1011.8 |
| 20260904171536 | 88 | 0 | 2.0 | 5.0 | 0.00 | 0.00 | 0.00 | 71 | 1011.8 |
| 20260904170517 | 88 | 158 | 2.0 | 4.0 | 0.00 | 0.00 | 0.00 | 75 | 1011.7 |
| 20260904165516 | 87 | 135 | 2.0 | 5.0 | 0.00 | 0.00 | 0.00 | 77 | 1011.6 |
| 20260904164516 | 87 | 158 | 1.0 | 3.0 | 0.00 | 0.00 | 0.00 | 76 | 1011.7 |
| 20260904163516 | 86 | 158 | 2.0 | 6.0 | 0.00 | 0.00 | 0.00 | 75 | 1011.5 |
| 20260904162516 | 85 | 0 | 1.0 | 4.0 | 0.00 | 0.00 | 0.00 | 77 | 1011.3 |
| 20260904161516 | 85 | 158 | 3.0 | 5.0 | 0.00 | 0.00 | 0.00 | 78 | 1011.1 |
| 20260904160516 | 84 | 0 | 1.0 | 3.0 | 0.00 | 0.01 | 0.00 | 79 | 1010.9 |
| 20260904155516 | 83 | 0 | 1.0 | 4.0 | 0.00 | 0.01 | 0.00 | 81 | 1011.0 |
| 20260904154536 | 83 | 0 | 1.0 | 3.0 | 0.00 | 0.01 | 0.00 | 82 | 1010.9 |
| 20260904153516 | 82 | 0 | 1.0 | 4.0 | 0.00 | 0.01 | 0.00 | 82 | 1010.9 |
| 20260904152516 | 81 | 0 | 1.0 | 3.0 | 0.00 | 0.01 | 0.00 | 83 | 1010.7 |
| 20260904151536 | 81 | 0 | 1.0 | 4.0 | 0.00 | 0.01 | 0.00 | 84 | 1010.7 |
| 20260904150516 | 80 | 90 | 1.0 | 3.0 | 0.00 | 0.01 | 0.00 | 86 | 1010.7 |
| 20260904145536 | 79 | 90 | 2.0 | 6.0 | 0.00 | 0.01 | 0.00 | 87 | 1010.7 |
| 20260904144516 | 79 | 90 | 1.0 | 3.0 | 0.00 | 0.01 | 0.00 | 87 | 1010.7 |
| 20260904143516 | 78 | 90 | 1.0 | 4.0 | 0.00 | 0.01 | 0.00 | 88 | 1010.8 |
| 20260904142517 | 77 | 90 | 2.0 | 4.0 | 0.00 | 0.01 | 0.00 | 89 | 1010.7 |
| 20260904141536 | 77 | 90 | 3.0 | 4.0 | 0.00 | 0.01 | 0.00 | 90 | 1010.6 |
| 20260904140517 | 76 | 90 | 3.0 | 6.0 | 0.00 | 0.01 | 0.00 | 90 | 1010.5 |
| 20260904135517 | 75 | 90 | 4.0 | 7.0 | 0.00 | 0.01 | 0.00 | 91 | 1010.5 |
| 20260904134537 | 75 | 90 | 3.0 | 6.0 | 0.00 | 0.01 | 0.00 | 92 | 1010.6 |
| 20260904133518 | 74 | 90 | 2.0 | 4.0 | 0.00 | 0.01 | 0.00 | 93 | 1010.4 |
| 20260904132518 | 74 | 90 | 2.0 | 4.0 | 0.00 | 0.01 | 0.00 | 93 | 1010.5 |
| 20260904131537 | 73 | 90 | 1.0 | 3.0 | 0.00 | 0.01 | 0.00 | 94 | 1010.3 |
| 20260904130518 | 73 | 0.0 | 3.0 | 0.00 | 0.01 | 0.00 | 95 | 1010.3 | |
| 20260904125518 | 72 | 0.0 | 0.0 | 0.00 | 0.02 | 0.00 | 95 | 1010.3 | |
| 20260904124518 | 72 | 68 | 1.0 | 2.0 | 0.00 | 0.02 | 0.00 | 96 | 1010.3 |
| 20260904123518 | 72 | 68 | 1.0 | 3.0 | 0.00 | 0.02 | 0.00 | 96 | 1010.2 |
| 20260904122517 | 72 | 68 | 2.0 | 4.0 | 0.00 | 0.02 | 0.00 | 96 | 1010.1 |
| 20260904121517 | 71 | 68 | 1.0 | 3.0 | 0.00 | 0.02 | 0.00 | 97 | 1010.1 |
| 20260904120517 | 71 | 0.0 | 1.0 | 0.00 | 0.02 | 0.00 | 96 | 1010.1 | |
| 20260904115537 | 71 | 0.0 | 0.0 | 0.00 | 0.02 | 0.00 | 96 | 1009.9 | |
| 20260904114517 | 71 | 0.0 | 2.0 | 0.00 | 0.02 | 0.00 | 96 | 1009.8 | |
| 20260904113517 | 71 | 0.0 | 0.0 | 0.00 | 0.03 | 0.00 | 96 | 1009.7 | |
| 20260904112518 | 72 | 0.0 | 0.0 | 0.00 | 0.03 | 0.00 | 96 | 1009.6 | |
| 20260904111518 | 72 | 0.0 | 0.0 | 0.00 | 0.03 | 0.00 | 96 | 1009.5 | |
| 20260904110519 | 72 | 0.0 | 0.0 | 0.00 | 0.03 | 0.00 | 96 | 1009.5 | |
| 20260904105517 | 72 | 0.0 | 0.0 | 0.00 | 0.03 | 0.00 | 95 | 1009.4 | |
| 20260904104517 | 73 | 0.0 | 0.0 | 0.00 | 0.03 | 0.00 | 95 | 1009.6 | |
| 20260904103517 | 73 | 0.0 | 0.0 | 0.00 | 0.03 | 0.00 | 94 | 1009.6 | |
| 20260904102517 | 74 | 0.0 | 0.0 | 0.00 | 0.04 | 0.00 | 94 | 1009.5 | |
| 20260904101517 | 74 | 0.0 | 0.0 | 0.00 | 0.04 | 0.00 | 93 | 1009.4 | |
| 20260904100537 | 74 | 0.0 | 0.0 | 0.00 | 0.04 | 0.00 | 93 | 1009.4 | |
| 20260904095517 | 74 | 0.0 | 1.0 | 0.00 | 0.05 | 0.00 | 93 | 1009.3 | |
| 20260904094517 | 75 | 90 | 2.0 | 3.0 | 0.00 | 0.05 | 0.00 | 93 | 1009.4 |
| 20260904093537 | 75 | 90 | 3.0 | 7.0 | 0.00 | 0.06 | 0.00 | 92 | 1009.2 |
| 20260904092518 | 75 | 90 | 4.0 | 7.0 | 0.00 | 0.07 | 0.00 | 92 | 1009.2 |
| 20260904091517 | 75 | 90 | 2.0 | 3.0 | 0.00 | 0.07 | 0.00 | 92 | 1009.2 |
| 20260904090517 | 76 | 90 | 3.0 | 6.0 | 0.00 | 0.07 | 0.00 | 91 | 1009.2 |
| 20260904085517 | 76 | 90 | 3.0 | 6.0 | 0.00 | 0.07 | 0.00 | 91 | 1009.2 |
| 20260904084517 | 76 | 90 | 4.0 | 7.0 | 0.00 | 0.07 | 0.00 | 91 | 1009.2 |
| 20260904083517 | 76 | 90 | 3.0 | 6.0 | 0.00 | 0.07 | 0.00 | 91 | 1009.0 |
| 20260904082517 | 77 | 90 | 2.0 | 4.0 | 0.00 | 0.07 | 0.00 | 91 | 1009.1 |
| 20260904081517 | 77 | 90 | 3.0 | 6.0 | 0.00 | 0.07 | 0.00 | 90 | 1009.1 |
| 20260904080537 | 77 | 90 | 4.0 | 8.0 | 0.00 | 0.07 | 0.00 | 90 | 1009.1 |
| 20260904075517 | 77 | 90 | 5.0 | 8.0 | 0.00 | 0.07 | 0.00 | 90 | 1009.2 |
| 20260904074517 | 77 | 90 | 4.0 | 7.0 | 0.00 | 0.07 | 0.00 | 91 | 1009.3 |
| 20260904073517 | 77 | 90 | 4.0 | 7.0 | 0.00 | 0.07 | 0.00 | 91 | 1009.1 |
| 20260904072517 | 77 | 90 | 4.0 | 7.0 | 0.00 | 0.07 | 0.00 | 91 | 1009.3 |
| 20260904071517 | 77 | 90 | 3.0 | 7.0 | 0.00 | 0.07 | 0.00 | 92 | 1009.2 |
| 20260904070517 | 77 | 90 | 5.0 | 9.0 | 0.00 | 0.07 | 0.00 | 92 | 1009.2 |
| 20260904065517 | 77 | 90 | 6.0 | 9.0 | 0.00 | 0.07 | 0.00 | 93 | 1009.2 |
| 20260904064517 | 77 | 90 | 4.0 | 7.0 | 0.00 | 0.07 | 0.00 | 93 | 1009.2 |
| 20260904063537 | 77 | 90 | 3.0 | 7.0 | 0.00 | 0.07 | 0.00 | 93 | 1009.2 |
| 20260904062517 | 77 | 90 | 3.0 | 9.0 | 0.00 | 0.07 | 0.00 | 93 | 1009.3 |
| 20260904061517 | 77 | 90 | 2.0 | 6.0 | 0.00 | 0.07 | 0.00 | 93 | 1009.3 |
| 20260904060517 | 78 | 90 | 3.0 | 9.0 | 0.00 | 0.07 | 0.00 | 93 | 1009.1 |
| 20260904055517 | 78 | 90 | 3.0 | 8.0 | 0.00 | 0.07 | 0.00 | 93 | 1009.1 |
| 20260904054537 | 77 | 90 | 2.0 | 7.0 | 0.00 | 0.07 | 0.00 | 93 | 1009.0 |
| 20260904053517 | 78 | 90 | 2.0 | 3.0 | 0.00 | 0.07 | 0.00 | 93 | 1009.0 |
| 20260904052517 | 77 | 90 | 3.0 | 7.0 | 0.00 | 0.07 | 0.00 | 92 | 1008.8 |
| 20260904051517 | 78 | 90 | 3.0 | 5.0 | 0.00 | 0.07 | 0.00 | 91 | 1008.8 |